#timestamp,LO_Frequency,Hit,StdDev 
1460055615.5,286047003.1,N
1460055635.4,286047003.6,N
1460055655.2,286047005.3,N
1460055675.0,286047005.3,N
1460055675.9,286047005.3,N
1460055695.7,286047007.4,N
1460055715.6,286047003.4,N
1460055735.4,286047005.4,N
1460055755.2,286047003.6,N
1460055775.1,286047003.6,N
1460055776.0,286047003.6,N
1460055795.8,286047001.5,N
1460055815.6,286047001.9,N
1460055835.5,286047000.3,N
1460055855.3,286046998.9,N
1460055875.1,286047001.3,N
1460055895.9,286047003.1,N
1460055915.7,286047003.3,N
1460055935.5,286047003.7,N
1460055955.4,286047004.3,N
1460055975.2,286047001.0,N
1460055995.0,286046999.4,N
1460055995.9,286046999.4,N
1460056015.7,286046999.1,N
1460056035.6,286047002.4,N
1460056055.4,286047003.5,N
1460056075.2,286047004.1,N
1460056095.1,286047003.7,N
1460056096.0,286047003.7,N
1460056115.8,286047001.6,N
1460056135.6,286047003.8,N
1460056155.5,286047005.2,N
1460056175.3,286047004.1,N
1460056195.1,286047003.3,N
1460056215.9,286047004.4,N
1460056235.7,286047002.4,N
1460056255.5,286047002.3,N
1460056275.4,286047000.0,N
1460056295.2,286047001.0,N
1460056315.0,286047002.5,N
1460056315.9,286047002.5,N
1460056335.8,286047001.1,N
1460056355.6,286047002.7,N
1460056375.4,286047001.1,N
1460056395.2,286046999.2,N
1460056415.1,286046996.7,N
1460056416.0,286046996.7,N
1460056435.8,286046999.4,N
1460056455.6,286046997.0,N
1460056475.5,286046999.0,N
1460056495.3,286046997.4,N
1460056515.1,286047000.7,N
1460056535.9,286047000.6,N
1460056555.7,286046998.5,N
1460056575.5,286046998.5,N
1460056595.4,286046999.9,N
1460056615.2,286046998.5,N
1460056635.0,286046997.1,N
1460056635.9,286046997.1,N
1460056655.8,286046997.8,N
1460056675.6,286046994.9,N
1460056695.4,286047001.2,N
1460056715.3,286046998.9,N
1460056735.1,286046996.7,N
1460056736.0,286046996.7,N
1460056755.8,286047001.1,N
1460056775.7,286047002.8,N
1460056795.5,286047004.0,N
1460056815.3,286047003.9,N
1460056835.1,286047004.2,N
1460056855.9,286047002.4,N
1460056875.7,286047001.2,N
1460056895.5,286046998.5,N
1460056915.4,286047004.1,N
1460056935.2,286047003.4,N
1460056955.0,286047003.8,N
1460056955.9,286047003.8,N
1460056975.8,286047003.2,N
1460056995.6,286047005.0,N
1460057015.4,286047002.9,N
1460057035.3,286047004.3,N
1460057055.1,286047004.3,N
1460057056.0,286047004.3,N
1460057075.8,286047004.1,N
1460057095.7,286047004.4,N
1460057115.5,286047002.1,N
1460057135.3,286047004.1,N
1460057155.2,286047003.8,N
1460057175.9,286047002.6,N
1460057195.7,286047004.2,N
1460057215.6,286047005.9,N
1460057235.4,286047001.4,N
1460057255.2,286047001.7,N
1460057275.0,286047001.5,N
1460057275.9,286047001.5,N
1460057295.8,286047004.4,N
1460057315.6,286047003.3,N
1460057335.4,286047003.7,N
1460057355.3,286047001.5,N
1460057375.1,286047003.9,N
1460057395.8,286047001.7,N
1460057415.7,286047001.4,N
1460057435.5,286047003.3,N
1460057455.3,286047003.9,Y
1460057475.2,286046997.4,P
1460057495.9,286046996.6,N
1460057515.7,286047000.4,N
1460057535.6,286047001.2,N
1460057555.4,286046997.0,N
1460057575.2,286046998.5,N
1460057595.0,286047000.6,N
1460057596.0,286047000.6,N
1460057615.8,286047000.3,N
1460057635.6,286047000.6,N
1460057655.4,286046999.7,N
1460057675.3,286047000.6,N
1460057695.1,286047001.7,N
1460057715.8,286047004.7,N
1460057735.7,286047004.4,N
1460057755.5,286047001.7,N
1460057775.3,286047000.1,N
1460057795.2,286046998.3,N
1460057815.9,286046998.4,N
1460057835.7,286046998.1,N
1460057855.6,286046999.8,N
1460057875.4,286047000.8,N
1460057895.2,286046997.2,N
1460057915.0,286046997.1,N
1460057916.0,286046997.1,N
1460057935.8,286046998.2,N
1460057955.6,286047000.6,N
1460057975.4,286047001.0,N
1460057995.3,286046995.0,N
1460058015.1,286046997.2,N
1460058035.8,286046999.4,N
1460058055.7,286046999.4,N
1460058075.5,286046997.7,N
1460058095.3,286046999.1,N
1460058115.2,286046998.2,N
1460058135.9,286046999.6,N
1460058155.7,286047001.5,N
1460058175.6,286047002.5,N
1460058195.4,286046998.2,N
1460058215.2,286046999.6,N
1460058235.1,286047002.5,N
1460058236.0,286047002.5,N
1460058255.8,286046998.3,N
1460058275.6,286046998.6,N
1460058295.4,286046997.0,N
1460058315.3,286046998.6,N
1460058335.1,286046999.9,N
1460058355.8,286046998.5,N
1460058375.7,286046996.7,N
1460058395.5,286046998.1,N
1460058415.3,286047000.9,N
1460058435.2,286046998.4,N
1460058455.9,286047000.9,N
1460058475.7,286047000.1,N
1460058495.6,286047000.6,N
1460058515.4,286046998.1,N
1460058535.2,286046996.5,N
1460058555.1,286047000.2,N
1460058556.0,286047000.2,N
1460058575.8,286046999.9,N
1460058595.6,286047001.0,N
1460058615.5,286046999.2,N
1460058635.3,286046998.3,N
1460058655.1,286046998.4,N
1460058675.8,286047000.5,N
1460058695.7,286046999.4,N
1460058715.5,286046996.7,N
1460058735.3,286046998.6,N
1460058755.2,286047000.5,N
1460058775.9,286046999.5,N
1460058795.7,286046998.1,N
1460058815.6,286047002.8,N
1460058835.4,286047000.3,N
1460058855.2,286047004.4,N
1460058875.1,286047002.5,N
1460058876.0,286047002.5,N
1460058895.8,286047002.4,N
1460058915.6,286046999.7,N
1460058935.5,286047004.4,N
1460058955.3,286047005.0,N
1460058975.1,286047006.3,N
1460058995.9,286047005.4,N
1460059015.7,286047002.2,N
1460059035.5,286047004.2,N
1460059055.3,286047003.6,N
1460059075.2,286047001.6,N
1460059095.0,286047001.9,N
1460059095.9,286047001.9,N
1460059115.7,286047003.9,N
1460059135.6,286047001.6,N
1460059155.4,286047003.9,N
1460059175.2,286047001.4,N
1460059195.1,286047002.0,N
1460059196.0,286047002.0,N
